Weather History for Sydney, NW

Change the Weather History Date:

Monday, January 28, 2013

  Actual Average Record
Temperature  
Mean Temperature 72 °F -  
Max Temperature 75 °F 80 °F 98 °F (1998)
Min Temperature 68 °F 66 °F 64 °F (2007)
Cooling Degree Days 6    
Growing Degree Days 22 (Base 50)    
Moisture  
Dew Point 68 °F    
Average Humidity 88    
Maximum Humidity 94    
Minimum Humidity 81    
Precipitation  
Precipitation 3.39 in 0.15 in - ()
Sea Level Pressure  
Sea Level Pressure 29.77 in    
Wind  
Wind Speed 14 mph ()    
Max Wind Speed 26 mph    
Max Gust Speed 38 mph    
Visibility 3.7 miles    
Events Rain    
Averages and records for this station are not official NWS values.
T = Trace of Precipitation, MM = Missing Value Source: Averaged Metar Reports

Daily Weather History Graph

Daily Weather History Graph

Search for Another Location

Airport:

Trip Planner

Search our weather history database for the weather conditions in past years. The results will help you decide how hot, cold, wet, or windy it might be!

Date:

Astronomy

Jan. 28, 2013 Rise Set
Actual Time 6:12 AM AEDT 8:03 PM AEDT
Civil Twilight 5:45 AM AEDT 8:30 PM AEDT
Nautical Twilight 5:11 AM AEDT 9:03 PM AEDT
Astronomical Twilight 4:36 AM AEDT 9:39 PM AEDT
Moon 8:22 PM AEDT (1/28) 6:59 AM AEDT (1/28)
Length of Visible Light 14h 45m
Length of Day
13h 50m
Full, 99% of the Moon is Illuminated
Jan 28
Full
Feb 4
Last Quarter
Feb 10
New
Feb 18
First Quarter
Feb 26
Full

Hourly Weather History & Observations

Time (AEDT) Temp. Dew Point Humidity Pressure Visibility Wind Dir Wind Speed Gust Speed Precip Events Conditions
12:00 AM 73 °F 70 °F 88% 29.83 in 6 mi NE 13.8 mph - - Rain Light Drizzle
12:00 AM 73.4 °F 69.8 °F 88% 29.83 in 6.2 mi NE 13.8 mph - N/A   Light Drizzle
12:38 AM 73.4 °F 69.8 °F 88% 29.80 in 3.1 mi NE 18.4 mph - N/A   Heavy Drizzle
1:06 AM 71.6 °F 66.2 °F 83% 29.80 in 3.7 mi NE 19.6 mph - N/A   Light Drizzle
1:24 AM 71.6 °F 68.0 °F 88% 29.80 in 6.2 mi NE 15.0 mph - N/A   Light Drizzle
2:00 AM 73 °F 68 °F 81% 29.80 in - NNE 18.4 mph - -  
2:00 AM 73.4 °F 68.0 °F 83% 29.77 in 6.2 mi NNE 18.4 mph - N/A   Scattered Clouds
2:30 AM 73.4 °F 68.0 °F 83% 29.77 in 6.2 mi NNE 12.7 mph - N/A   Mostly Cloudy
3:00 AM 73 °F 69 °F 82% 29.79 in 12 mi NNE 12.7 mph - -   Partly Cloudy
3:00 AM 73.4 °F 68.0 °F 83% 29.77 in 6.2 mi NNE 12.7 mph - N/A   Mostly Cloudy
3:30 AM 73.4 °F 69.8 °F 88% 29.77 in 6.2 mi NE 10.4 mph - N/A   Mostly Cloudy
4:00 AM 73.4 °F 68.0 °F 83% 29.77 in 6.2 mi NNE 9.2 mph - N/A   Mostly Cloudy
4:30 AM 73.4 °F 68.0 °F 83% 29.77 in 6.2 mi North 8.1 mph - N/A   Mostly Cloudy
5:00 AM 73 °F 69 °F 83% 29.78 in - NE 5.8 mph - -  
5:00 AM 73.4 °F 69.8 °F 88% 29.77 in 6.2 mi NE 5.8 mph - N/A   Mostly Cloudy
5:30 AM 73.4 °F 69.8 °F 88% 29.77 in 5.6 mi ENE 4.6 mph - N/A Rain Light Rain
6:00 AM 73 °F 69 °F 84% 29.79 in 7 mi NE 5.8 mph - -   Partly Cloudy
6:00 AM 73.4 °F 69.8 °F 88% 29.77 in 6.2 mi NE 5.8 mph - N/A   Overcast
6:30 AM 73.4 °F 68.0 °F 83% 29.80 in 6.2 mi NE 8.1 mph - N/A   Overcast
7:00 AM 73.4 °F 68.0 °F 83% 29.80 in 6.2 mi ENE 6.9 mph - N/A   Overcast
7:30 AM 73.4 °F 68.0 °F 83% 29.80 in 5.0 mi NE 5.8 mph - N/A   Overcast
7:50 AM 73.4 °F 68.0 °F 83% 29.80 in 3.7 mi NNE 9.2 mph - N/A Rain Light Rain Showers
8:00 AM 72 °F 69 °F 87% 29.83 in - NNE 10.4 mph - -  
8:00 AM 73.4 °F 69.8 °F 88% 29.80 in 3.7 mi NNE 10.4 mph - N/A Rain Light Rain Showers
8:30 AM 71.6 °F 68.0 °F 88% 29.80 in 5.0 mi NE 9.2 mph - N/A   Mostly Cloudy
9:00 AM 74 °F 70 °F 83% 29.81 in 7 mi NNE 10.4 mph - -   Overcast
9:00 AM 73.4 °F 69.8 °F 88% 29.80 in 6.2 mi NNE 10.4 mph - N/A   Mostly Cloudy
9:30 AM 75.2 °F 69.8 °F 83% 29.80 in 6.2 mi NE 10.4 mph - N/A   Mostly Cloudy
10:00 AM 75.2 °F 69.8 °F 83% 29.80 in 3.7 mi NE 16.1 mph - N/A Rain Light Rain Showers
10:30 AM 73.4 °F 69.8 °F 88% 29.80 in 3.1 mi NE 16.1 mph 27.6 mph N/A Rain Light Rain Showers
11:00 AM 73 °F 71 °F 89% 29.82 in - NNE 19.6 mph - -  
11:00 AM 73.4 °F 69.8 °F 88% 29.80 in 2.5 mi NNE 19.6 mph - N/A Rain Rain Showers
11:30 AM 73.4 °F 69.8 °F 88% 29.80 in 1.9 mi NNE 13.8 mph - N/A Rain Light Rain Showers
12:00 PM 73 °F 70 °F 88% 29.81 in 2 mi NNE 19.6 mph - - Rain Light Rain Showers
12:00 PM 73.4 °F 69.8 °F 88% 29.80 in 2.5 mi NNE 19.6 mph - N/A Rain Light Rain Showers
12:30 PM 73.4 °F 69.8 °F 88% 29.80 in 2.5 mi NNE 16.1 mph - N/A Rain Light Rain
1:00 PM 73.4 °F 69.8 °F 88% 29.77 in 2.5 mi NE 18.4 mph - N/A Rain Rain
1:05 PM 71.6 °F 69.8 °F 94% 29.80 in 2.5 mi NNE 20.7 mph 32.2 mph N/A Rain Rain
1:30 PM 71.6 °F 69.8 °F 94% 29.80 in 2.5 mi NE 21.9 mph - N/A Rain Rain
2:00 PM 71 °F 69 °F 90% 29.81 in - NE 20.7 mph - -  
2:00 PM 71.6 °F 68.0 °F 88% 29.80 in 2.5 mi NE 20.7 mph - N/A Rain Rain
2:30 PM 69.8 °F 68.0 °F 94% 29.77 in 2.5 mi NE 10.4 mph - N/A Rain Rain
3:00 PM 71 °F 69 °F 93% 29.78 in 2 mi NE 11.5 mph - - Rain Rain
3:00 PM 71.6 °F 69.8 °F 94% 29.77 in 1.9 mi NE 11.5 mph - N/A Rain Rain
3:11 PM 69.8 °F 68.0 °F 94% 29.77 in 1.2 mi NE 17.3 mph 28.8 mph N/A Rain Rain
3:30 PM 69.8 °F 68.0 °F 94% 29.77 in 1.9 mi ENE 17.3 mph - N/A Rain Light Rain
4:00 PM 71.6 °F 68.0 °F 88% 29.77 in 1.9 mi NE 24.2 mph 35.7 mph N/A Rain Rain
4:30 PM 71.6 °F 68.0 °F 88% 29.74 in 1.9 mi ENE 21.9 mph 33.4 mph N/A Rain Rain
5:00 PM 72 °F 69 °F 87% 29.76 in - ENE 17.3 mph - -  
5:00 PM 71.6 °F 69.8 °F 94% 29.74 in 1.9 mi ENE 17.3 mph - N/A Rain Rain
5:30 PM 71.6 °F 68.0 °F 88% 29.74 in 1.9 mi ENE 19.6 mph - N/A Rain Rain
5:35 PM 69.8 °F 68.0 °F 94% 29.74 in 1.9 mi ENE 19.6 mph 31.1 mph N/A Rain Rain
5:46 PM 69.8 °F 66.2 °F 88% 29.74 in 3.7 mi ENE 24.2 mph - N/A Rain Rain
6:00 PM 70 °F 67 °F 86% 29.75 in 3 mi ENE 19.6 mph - - Rain Rain
6:00 PM 69.8 °F 66.2 °F 88% 29.74 in 3.1 mi ENE 19.6 mph - N/A Rain Rain
6:30 PM 71.6 °F 68.0 °F 88% 29.74 in 1.9 mi ENE 21.9 mph - N/A Rain Rain
7:00 PM 69.8 °F 68.0 °F 94% 29.74 in 1.9 mi ENE 23.0 mph 38.0 mph N/A Rain Rain
7:08 PM 68.0 °F 64.4 °F 88% 29.74 in 3.1 mi ENE 25.3 mph - N/A Rain Rain
7:16 PM 68.0 °F 64.4 °F 88% 29.74 in 3.7 mi ENE 21.9 mph 33.4 mph N/A Rain Light Rain
7:30 PM 69.8 °F 64.4 °F 83% 29.74 in 3.7 mi ENE 18.4 mph - N/A Rain Light Rain
8:00 PM 69 °F 65 °F 83% 29.78 in - ENE 21.9 mph - -  
8:00 PM 68.0 °F 64.4 °F 88% 29.77 in 3.1 mi ENE 21.9 mph - N/A Rain Rain
8:30 PM 68.0 °F 62.6 °F 83% 29.77 in 3.1 mi ENE 21.9 mph - N/A Rain Rain
9:00 PM 68 °F 66 °F 90% 29.77 in 2 mi ENE 9.2 mph - - Rain Rain
9:00 PM 68.0 °F 66.2 °F 94% 29.77 in 2.5 mi ENE 9.2 mph - N/A Rain Rain
9:30 PM 68.0 °F 66.2 °F 94% 29.74 in 2.5 mi East 8.1 mph - N/A Rain Rain
9:53 PM 69.8 °F 68.0 °F 94% 29.77 in 1.6 mi ENE 12.7 mph - N/A Rain Heavy Rain
9:59 PM 69.8 °F 66.2 °F 88% 29.74 in 1.6 mi ENE 17.3 mph 28.8 mph N/A Rain Heavy Rain
10:00 PM 69.8 °F 66.2 °F 88% 29.74 in 1.6 mi ENE 17.3 mph 28.8 mph N/A Rain Heavy Rain
10:30 PM 69.8 °F 66.2 °F 88% 29.74 in 1.9 mi ENE 20.7 mph - N/A Rain Heavy Rain
10:36 PM 69.8 °F 66.2 °F 88% 29.74 in 1.9 mi ENE 21.9 mph 33.4 mph N/A Rain Heavy Rain
10:56 PM 68.0 °F 66.2 °F 94% 29.74 in 1.6 mi ENE 21.9 mph - N/A Rain Heavy Rain
11:00 PM 68 °F 67 °F 94% 29.74 in - ENE 20.7 mph - -  
11:00 PM 68.0 °F 66.2 °F 94% 29.71 in 1.6 mi ENE 20.7 mph - N/A Rain Heavy Rain
11:15 PM 68.0 °F 66.2 °F 94% 29.71 in 1.6 mi East 26.5 mph 38.0 mph N/A Rain Heavy Rain
11:30 PM 68.0 °F 66.2 °F 94% 29.71 in 1.9 mi ENE 21.9 mph - N/A Rain Heavy Rain